Regional Weather Roundup
Issued by NWS Jackson, KY

Home | Current Version | Previous Version | Text Only | Print | Product List | Glossary Off
Versions: 1 2 3 4 5 6 7 8 9 10 11 12 13 14 15 16 17 18 19 20 21 22 23 24 25 26 27 28 29 30 31 32 33 34 35 36 37 38 39 40 41 42 43 44 45 46 47 48 49 50

000
ASUS43 KJKL 282211
RWRJKL

EAST KENTUCKY HOURLY WEATHER ROUNDUP
NATIONAL WEATHER SERVICE JACKSON KY
500 PM EST WED JAN 28 2015

NOTE: "FAIR" INDICATES FEW OR NO CLOUDS BELOW 12,000 FEET WITH
NO SIGNIFICANT WEATHER AND/OR OBSTRUCTIONS TO VISIBILITY.

* THESE REPORTS ARE NOT UNDER NWS QUALITY CONTROL AND MAY NOT
  REPORT WEATHER SUCH AS PRECIPITATION AND FOG.

KYZ079-080-083-085-087-088-110-112-115-119-120-282300
...EASTERN KENTUCKY...

CITY           SKY/WX    TMP DP  RH WIND       PRES   REMARKS
JACKSON        CLEAR     36  17  46 CALM      30.26F
LONDON         CLEAR     40  17  39 SE7       30.25F
SOMERSET*      CLEAR     41  14  33 S3        30.26F
MONTICELLO*    CLEAR     43  12  28 SE7       30.26F
MIDDLESBORO*   CLEAR     41  19  41 SW5       30.26F
HARLAN APT*    CLEAR     41  19  42 CALM      30.24F
HAZARD APT*    CLEAR     37  19  48 CALM      30.27S
BLACK MTN*       N/A     28  23  80 S6          N/A  WCI  22
PIKEVILLE APT* CLEAR     32  19  59 CALM      30.26F
BIG SANDY*     CLEAR     33  20  59 E5        30.28F WCI  28
MOREHEAD APT*    N/A     36  18  48 SE7       30.28F WCI  30
$$

KYZ035-036-041-042-044-050-067-078-099-282300
...CENTRAL KENTUCKY...

CITY           SKY/WX    TMP DP  RH WIND       PRES   REMARKS
MT STERLING*   CLEAR     36  19  51 S7        30.26F WCI  30
FLEMING/MASON* CLEAR     34  20  58 SE3       30.28F
DANVILLE*      CLEAR     37  19  48 SE6       30.25F WCI  33
RICHMOND*      CLEAR     39  18  41 SE5       30.25S
LEXINGTON      CLEAR     35  18  49 S10       30.25F WCI  27
FRANKFORT      CLEAR     36  17  46 SE10      30.24F WCI  28
$$

KYZ091>093-OHZ055-061-077-WVZ005-015-034-035-042-282300
...SOUTHERN OHIO/WEST VIRGINIA...

CITY           SKY/WX    TMP DP  RH WIND       PRES   REMARKS
COVINGTON      MOCLDY    35  19  52 SE10      30.24S WCI  27
COLUMBUS       MOCLDY    26  12  55 SE7       30.29F WCI  18
DAYTON         CLOUDY    30  18  60 SE12      30.25S WCI  20
WILMINGTON       N/A     31  17  56 SE9       30.25F WCI  23
HUNTINGTON     CLEAR     32  18  56 E6        30.30F WCI  26
CHARLESTON     PTCLDY    32  13  45 CALM      30.31F
PINEVILLE*     CLEAR     34  24  66 MISG      30.30S
BECKLEY        CLEAR     28  13  53 N6        30.22R WCI  22
BLUEFIELD      CLEAR     33  16  49 W9        30.20R WCI  25
$$

VAZ002-007-008-TNZ017-027-036-066-071-282300
...SOUTHWEST VIRGINIA/EAST TENNESSEE...

CITY           SKY/WX    TMP DP  RH WIND       PRES   REMARKS
WISE*          CLEAR     36  18  48 CALM      30.21F
JONESVILLE*    CLEAR     41  18  38 CALM      30.27F
ABINGDON*      CLEAR     37  20  49 SW8       30.24S WCI  31
BRISTOL        PTCLDY    38  18  44 S3        30.27S
KNOXVILLE      PTCLDY    43  17  35 E3        30.25F
OAK RIDGE      CLEAR     43  14  31 E5        30.27F
CROSSVILLE     SUNNY     43  14  31 VRB5      30.22S
NASHVILLE      MOSUNNY   50  23  34 S8        30.21F
$$

...KEY TO REMARKS...
VSB - VISIBILITY IN MILES
WCI - WIND CHILL INDEX
HX  - HEAT INDEX

$$



USA.gov is the U.S. government's official web portal to all federal, state and local government web resources and services.